When you browse on this site, cookies collect data to enhance your experience and personalize the content and advertising you see.
Visit our Privacy Policy to learn more. By continuing to use the site, you agree to this use of cookies and data.
  • In Hungary
  • List of Countries
  • For 7 days
  • Water Temperature
  • Weather Map
  • News
  • Weather Widgets
  • user-avatar
    Login

    Hourly Weather Ahmadnagar

    Today, 6 April, Monday

    Time Temperature Precipitation Wind Pressure Humidity
    00:00 +32°C° 0 mm 4 mps 704 mmHg 23%
    01:00 +30°C° 0 mm 4 mps 703 mmHg 22%
    02:00 +29°C° 0 mm 4 mps 703 mmHg 20%
    03:00 +29°C° 0 mm 3 mps 703 mmHg 21%
    04:00 +28°C° 0 mm 3 mps 703 mmHg 21%
    05:00 +27°C° 0 mm 2 mps 703 mmHg 24%
    06:00 +29°C° 0 mm 2 mps 704 mmHg 21%
    07:00 +31°C° 0 mm 3 mps 704 mmHg 19%
    08:00 +33°C° 0 mm 3 mps 705 mmHg 16%
    09:00 +35°C° 0 mm 2 mps 705 mmHg 15%
    10:00 +36°C° 0 mm 2 mps 705 mmHg 14%
    11:00 +37°C° 0 mm 1 mps 705 mmHg 12%
    12:00 +39°C° 0 mm 1 mps 705 mmHg 12%
    13:00 +39°C° 0 mm 2 mps 704 mmHg 11%
    14:00 +40°C° 0 mm 3 mps 703 mmHg 10%
    15:00 +40°C° 0 mm 3 mps 703 mmHg 10%
    16:00 +41°C° 0 mm 4 mps 702 mmHg 10%
    17:00 +41°C° 0 mm 4 mps 702 mmHg 9%
    18:00 +39°C° 0 mm 5 mps 702 mmHg 14%
    19:00 +36°C° 0 mm 5 mps 703 mmHg 19%
    20:00 +35°C° 0 mm 6 mps 703 mmHg 24%
    21:00 +34°C° 0 mm 5 mps 703 mmHg 28%
    22:00 +33°C° 0 mm 4 mps 703 mmHg 33%
    23:00 +30°C° 0 mm 3 mps 703 mmHg 37%

    Tomorrow, 7 April, Tuesday

    Time Temperature Precipitation Wind Pressure Humidity
    00:00 +30°C° 0 mm 3 mps 703 mmHg 37%
    01:00 +29°C° 0 mm 3 mps 702 mmHg 37%
    02:00 +28°C° 0 mm 2 mps 702 mmHg 37%
    03:00 +28°C° 0 mm 2 mps 702 mmHg 36%
    04:00 +27°C° 0 mm 2 mps 702 mmHg 35%
    05:00 +27°C° 0 mm 1 mps 702 mmHg 34%
    06:00 +28°C° 0 mm 2 mps 702 mmHg 30%
    07:00 +30°C° 0 mm 3 mps 703 mmHg 25%
    08:00 +33°C° 0 mm 4 mps 704 mmHg 21%
    09:00 +34°C° 0 mm 3 mps 704 mmHg 18%
    10:00 +36°C° 0 mm 3 mps 704 mmHg 14%
    11:00 +37°C° 0 mm 3 mps 704 mmHg 11%
    12:00 +38°C° 0 mm 3 mps 703 mmHg 11%
    13:00 +40°C° 0 mm 4 mps 703 mmHg 10%
    14:00 +41°C° 0 mm 4 mps 702 mmHg 10%
    15:00 +41°C° 0 mm 6 mps 702 mmHg 11%
    16:00 +40°C° 0 mm 7 mps 701 mmHg 12%
    17:00 +40°C° 0 mm 8 mps 701 mmHg 13%
    18:00 +38°C° 0 mm 8 mps 701 mmHg 16%
    19:00 +35°C° 0 mm 8 mps 702 mmHg 19%
    20:00 +33°C° 0 mm 8 mps 702 mmHg 22%
    21:00 +32°C° 0 mm 7 mps 702 mmHg 22%
    22:00 +32°C° 0 mm 6 mps 702 mmHg 23%
    23:00 +30°C° 0 mm 6 mps 702 mmHg 24%

    Day after tomorrow, 8 April, Wednesday

    Time Temperature Precipitation Wind Pressure Humidity
    00:00 +29°C° 0 mm 5 mps 702 mmHg 24%
    01:00 +28°C° 0 mm 4 mps 702 mmHg 24%
    02:00 +28°C° 0 mm 3 mps 701 mmHg 25%
    03:00 +27°C° 0 mm 3 mps 701 mmHg 27%
    04:00 +26°C° 0 mm 3 mps 701 mmHg 29%
    05:00 +25°C° 0 mm 2 mps 701 mmHg 30%
    06:00 +26°C° 0 mm 2 mps 702 mmHg 28%
    07:00 +27°C° 0 mm 2 mps 703 mmHg 25%
    08:00 +28°C° 0 mm 2 mps 704 mmHg 23%
    09:00 +30°C° 0 mm 3 mps 704 mmHg 20%
    10:00 +34°C° 0 mm 3 mps 704 mmHg 16%
    11:00 +36°C° 0 mm 4 mps 704 mmHg 13%
    12:00 +37°C° 0 mm 4 mps 704 mmHg 12%
    13:00 +38°C° 0 mm 4 mps 703 mmHg 11%
    14:00 +40°C° 0 mm 5 mps 702 mmHg 9%
    15:00 +40°C° 0 mm 5 mps 702 mmHg 10%
    16:00 +39°C° 0 mm 6 mps 702 mmHg 10%
    17:00 +39°C° 0 mm 7 mps 701 mmHg 11%
    18:00 +36°C° 0 mm 7 mps 702 mmHg 14%
    19:00 +34°C° 0 mm 7 mps 702 mmHg 18%
    20:00 +32°C° 0 mm 7 mps 703 mmHg 21%
    21:00 +30°C° 0 mm 6 mps 703 mmHg 23%
    22:00 +29°C° 0 mm 5 mps 703 mmHg 24%
    23:00 +28°C° 0 mm 4 mps 703 mmHg 26%

    9 April, Thursday

    Time Temperature Precipitation Wind Pressure Humidity
    00:00 +27°C° 0 mm 4 mps 703 mmHg 29%
    01:00 +26°C° 0 mm 3 mps 702 mmHg 33%
    02:00 +25°C° 0 mm 3 mps 702 mmHg 37%
    03:00 +25°C° 0 mm 3 mps 702 mmHg 39%
    04:00 +24°C° 0 mm 3 mps 702 mmHg 42%
    05:00 +22°C° 0 mm 3 mps 701 mmHg 44%
    06:00 +26°C° 0 mm 4 mps 702 mmHg 37%
    07:00 +28°C° 0 mm 5 mps 703 mmHg 31%
    08:00 +30°C° 0 mm 6 mps 704 mmHg 24%
    09:00 +33°C° 0 mm 5 mps 704 mmHg 21%
    10:00 +35°C° 0 mm 5 mps 704 mmHg 19%
    11:00 +37°C° 0 mm 5 mps 704 mmHg 16%
    12:00 +37°C° 0 mm 4 mps 703 mmHg 14%
    13:00 +38°C° 0 mm 3 mps 703 mmHg 13%
    14:00 +39°C° 0 mm 2 mps 702 mmHg 11%
    15:00 +39°C° 0 mm 2 mps 702 mmHg 11%
    16:00 +39°C° 0 mm 3 mps 701 mmHg 10%
    17:00 +39°C° 0 mm 3 mps 701 mmHg 9%
    18:00 +38°C° 0 mm 4 mps 702 mmHg 12%
    19:00 +36°C° 0 mm 4 mps 702 mmHg 15%
    20:00 +34°C° 0 mm 5 mps 702 mmHg 19%
    21:00 +33°C° 0 mm 5 mps 702 mmHg 24%
    22:00 +30°C° 0 mm 5 mps 703 mmHg 30%
    23:00 +29°C° 0 mm 5 mps 703 mmHg 35%

    10 April, Friday

    Time Temperature Precipitation Wind Pressure Humidity
    00:00 +29°C° 0 mm 4 mps 702 mmHg 33%
    01:00 +28°C° 0 mm 4 mps 702 mmHg 30%
    02:00 +28°C° 0 mm 3 mps 701 mmHg 27%
    03:00 +27°C° 0 mm 3 mps 701 mmHg 27%
    04:00 +27°C° 0 mm 3 mps 702 mmHg 27%
    05:00 +26°C° 0 mm 3 mps 702 mmHg 27%
    06:00 +28°C° 0 mm 4 mps 702 mmHg 24%
    07:00 +29°C° 0 mm 5 mps 703 mmHg 22%
    08:00 +32°C° 0 mm 6 mps 704 mmHg 19%
    09:00 +34°C° 0 mm 5 mps 704 mmHg 17%
    10:00 +36°C° 0 mm 5 mps 704 mmHg 15%
    11:00 +38°C° 0 mm 4 mps 704 mmHg 13%
    12:00 +39°C° 0 mm 3 mps 703 mmHg 12%
    13:00 +39°C° 0 mm 2 mps 703 mmHg 11%
    14:00 +40°C° 0 mm 1 mps 702 mmHg 10%
    15:00 +40°C° 0 mm 2 mps 701 mmHg 10%
    16:00 +40°C° 0 mm 2 mps 701 mmHg 9%
    17:00 +40°C° 0 mm 3 mps 701 mmHg 9%
    18:00 +38°C° 0 mm 3 mps 701 mmHg 10%
    19:00 +37°C° 0 mm 3 mps 702 mmHg 11%
    20:00 +35°C° 0 mm 2 mps 702 mmHg 12%
    21:00 +34°C° 0 mm 3 mps 702 mmHg 14%
    22:00 +34°C° 0 mm 4 mps 703 mmHg 16%
    23:00 +33°C° 0 mm 5 mps 703 mmHg 19%

    11 April, Saturday

    Time Temperature Precipitation Wind Pressure Humidity
    00:00 +32°C° 0 mm 4 mps 702 mmHg 18%
    01:00 +29°C° 0 mm 2 mps 702 mmHg 18%
    02:00 +28°C° 0 mm 1 mps 702 mmHg 18%
    03:00 +28°C° 0 mm 1 mps 702 mmHg 18%
    04:00 +27°C° 0 mm 1 mps 702 mmHg 19%
    05:00 +26°C° 0 mm 1 mps 702 mmHg 19%
    06:00 +29°C° 0 mm 2 mps 703 mmHg 17%
    07:00 +31°C° 0 mm 3 mps 704 mmHg 15%
    08:00 +34°C° 0 mm 4 mps 704 mmHg 13%
    09:00 +36°C° 0 mm 4 mps 704 mmHg 12%
    10:00 +39°C° 0 mm 5 mps 705 mmHg 10%
    11:00 +40°C° 0 mm 5 mps 705 mmHg 9%
    12:00 +41°C° 0 mm 4 mps 704 mmHg 9%
    13:00 +42°C° 0 mm 4 mps 703 mmHg 8%
    14:00 +42°C° 0 mm 3 mps 702 mmHg 8%
    15:00 +42°C° 0 mm 3 mps 702 mmHg 8%
    16:00 +42°C° 0 mm 3 mps 702 mmHg 7%
    17:00 +42°C° 0 mm 3 mps 701 mmHg 7%
    18:00 +39°C° 0 mm 3 mps 702 mmHg 9%
    19:00 +37°C° 0 mm 2 mps 702 mmHg 11%
    20:00 +35°C° 0 mm 2 mps 702 mmHg 12%
    21:00 +34°C° 0 mm 3 mps 702 mmHg 16%
    22:00 +34°C° 0 mm 3 mps 703 mmHg 19%
    23:00 +33°C° 0 mm 4 mps 703 mmHg 22%
    Show more